sat.trackr.live / text

‹ back to catalog

UNKNOWN

NORAD 81617

UNKNOWN UNKNOWN UNKNOWN

§ Identity

Operator
Country
Launch date
Launch site
Launch vehicle
Mass (kg)
RCS (m²)

External: N2YO · Heavens-Above

§ Orbital elements

Epoch: 2026-05-23T18:07:43.114368Z

Period
114.50 min
Inclination
101.2753°
Eccentricity
0.0031786
Mean motion
12.57663007 rev/d
Perigee alt
1,407.8 km
Apogee alt
1,457.4 km
Semi-major
7,810.7 km
B*
1.7050e-3
RAAN
316.2473°
Arg perigee
273.0982°
Mean anomaly
86.6458°
Rev number
57,347

§ Raw data

UNKNOWN1 81617U          26143.75536012  .00000245  00000+0  17050-2 0  99932 81617 101.2753 316.2473 0031786 273.0982  86.6458 12.57663007573476

JSON: /api/v1/satellites/81617 · /tle

For live sub-satellite position, see the globe view (requires WebGL).

§ Visibility from observer

Set your observer location to see the next 7 days of passes ≥ 10°. The values pass through the URL so the page stays shareable.

No JS? Fill the form by hand. The geolocation button needs JavaScript.